CW0405 Weather Reports


time (UTC)temp
C
wind
direction
speed
KPH
gust
KPH
rain 1hr
cm
rain 24hr
cm
rain mn
cm
humidity
%
barometer
mb
20260506015310 20 249 4.8 16.1 0.00 0.00 0.00 55 1007.7
20260506014308 20 174 3.2 11.3 0.00 0.00 0.00 55 1007.7
20260506013808 20 202 4.8 9.7 0.00 0.00 0.00 55 1007.7
20260506013309 20 207 4.8 11.3 0.00 0.00 0.00 55 1007.7
20260506012810 20 217 4.8 11.3 0.00 0.00 0.00 55 1007.7
20260506012310 20 199 4.8 17.7 0.00 0.00 0.00 54 1007.3
20260506011307 20 134 8.0 16.1 0.00 0.00 0.00 53 1006.8
20260506010801 20 221 8.0 19.3 0.00 0.00 0.00 52 1006.8
20260506010259 21 251 8.0 19.3 0.00 0.00 0.00 52 1006.6
20260506005300 21 174 6.4 14.5 0.00 0.00 0.00 52 1006.5
20260506004757 21 222 6.4 14.5 0.00 0.00 0.00 52 1006.4
20260506004258 21 193 6.4 17.7 0.00 0.00 0.00 51 1006.3
20260506003757 21 162 6.4 17.7 0.00 0.00 0.00 51 1006.2
20260506003256 21 139 6.4 12.9 0.00 0.00 0.00 51 1006.1
20260506002301 21 192 6.4 9.7 0.00 0.00 0.00 50 1005.8
20260506001756 21 136 4.8 9.7 0.00 0.00 0.00 50 1005.6
20260506001256 21 158 4.8 9.7 0.00 0.00 0.00 50 1005.4
20260506000802 22 207 4.8 9.7 0.00 0.00 0.00 49 1005.4
20260506000255 22 163 4.8 11.3 0.00 0.00 0.00 49 1005.4
20260505234752 22 232 6.4 11.3 0.00 0.00 0.00 48 1005.0
20260505234251 22 168 6.4 11.3 0.00 0.00 0.00 48 1005.0
20260505233753 22 169 6.4 14.5 0.00 0.00 0.00 48 1005.0
20260505232750 23 146 8.0 24.1 0.00 0.00 0.00 47 1004.8
20260505232250 23 113 9.7 25.7 0.00 0.00 0.00 47 1004.6
20260505231249 23 169 8.0 17.7 0.00 0.00 0.00 47 1004.6
20260505225749 23 169 8.0 16.1 0.00 0.00 0.00 45 1004.4
20260505225250 24 136 6.4 12.9 0.00 0.00 0.00 45 1004.3
20260505224749 24 144 6.4 12.9 0.00 0.00 0.00 45 1004.2
20260505224250 24 177 6.4 14.5 0.00 0.00 0.00 44 1004.1
20260505223751 24 152 4.8 17.7 0.00 0.00 0.00 44 1004.1
20260505223253 25 152 4.8 17.7 0.00 0.00 0.00 44 1003.9
20260505221748 25 134 9.7 19.3 0.00 0.00 0.00 42 1003.7
20260505221246 25 133 6.4 17.7 0.00 0.00 0.00 42 1003.8
20260505220747 25 153 4.8 12.9 0.00 0.00 0.00 42 1003.7
20260505220247 25 143 6.4 16.1 0.00 0.00 0.00 42 1003.5
20260505215246 25 180 6.4 12.9 0.00 0.00 0.00 42 1003.5
20260505214749 25 138 6.4 14.5 0.00 0.00 0.00 41 1003.4
20260505214244 26 135 6.4 14.5 0.00 0.00 0.00 40 1003.4
20260505213742 26 165 6.4 11.3 0.00 0.00 0.00 41 1003.4
20260505213244 26 164 4.8 14.5 0.00 0.00 0.00 40 1003.3
20260505212742 26 138 4.8 14.5 0.00 0.00 0.00 40 1003.2
20260505212242 26 140 9.7 24.1 0.00 0.00 0.00 39 1003.1
20260505211743 27 154 11.3 30.6 0.00 0.00 0.00 37 1003.1
20260505210742 27 197 9.7 20.9 0.00 0.00 0.00 37 1003.0
20260505210246 27 223 9.7 20.9 0.00 0.00 0.00 37 1003.0
20260505205739 27 138 9.7 17.7 0.00 0.00 0.00 36 1003.0
20260505205241 27 220 8.0 19.3 0.00 0.00 0.00 36 1002.9
20260505204740 27 155 11.3 30.6 0.00 0.00 0.00 35 1002.8
20260505204239 28 148 9.7 30.6 0.00 0.00 0.00 35 1002.7
20260505203741 28 141 11.3 27.4 0.00 0.00 0.00 35 1002.9
20260505203239 28 160 11.3 27.4 0.00 0.00 0.00 35 1003.0
20260505202739 28 166 9.7 20.9 0.00 0.00 0.00 35 1003.0
20260505201740 28 214 9.7 19.3 0.00 0.00 0.00 34 1003.1
20260505201235 28 194 8.0 19.3 0.00 0.00 0.00 35 1003.0
20260505200735 28 174 6.4 16.1 0.00 0.00 0.00 36 1003.0
20260505200236 28 167 6.4 29.0 0.00 0.00 0.00 36 1003.0
20260505195734 28 210 8.0 29.0 0.00 0.00 0.00 37 1003.0
20260505195235 28 201 8.0 25.7 0.00 0.00 0.00 37 1003.2
20260505194738 28 179 11.3 25.7 0.00 0.00 0.00 37 1003.1
20260505194235 28 165 9.7 25.7 0.00 0.00 0.00 36 1003.2
20260505193736 28 174 8.0 20.9 0.00 0.00 0.00 37 1003.0
20260505193237 28 138 8.0 20.9 0.00 0.00 0.00 36 1003.3
20260505192730 28 146 9.7 20.9 0.00 0.00 0.00 35 1003.3
20260505192230 28 157 9.7 27.4 0.00 0.00 0.00 35 1003.4
20260505191732 28 149 6.4 27.4 0.00 0.00 0.00 38 1003.5
20260505191232 27 155 6.4 17.7 0.00 0.00 0.00 40 1003.6
20260505190732 28 148 8.0 25.7 0.00 0.00 0.00 39 1003.7
20260505185734 27 213 9.7 24.1 0.00 0.00 0.00 38 1004.1
20260505184732 27 153 9.7 25.7 0.00 0.00 0.00 35 1003.9
20260505184227 27 149 11.3 25.7 0.00 0.00 0.00 36 1004.0
20260505183228 27 170 12.9 33.8 0.00 0.00 0.00 35 1004.3
20260505182228 28 243 9.7 25.7 0.00 0.00 0.00 35 1004.4
20260505181727 28 193 8.0 24.1 0.00 0.00 0.00 36 1004.4
20260505180728 28 166 11.3 32.2 0.00 0.00 0.00 36 1004.5
20260505180228 28 222 11.3 32.2 0.00 0.00 0.00 34 1004.5
20260505175721 28 231 11.3 24.1 0.00 0.00 0.00 36 1004.7
20260505175218 27 151 11.3 25.7 0.00 0.00 0.00 36 1004.6
20260505174727 28 235 11.3 25.7 0.00 0.00 0.00 35 1004.8
20260505174222 28 96 11.3 27.4 0.00 0.00 0.00 36 1004.7
20260505173218 27 182 9.7 22.5 0.00 0.00 0.00 36 1005.0
20260505172719 27 160 8.0 22.5 0.00 0.00 0.00 35 1005.2
20260505172217 27 178 8.0 20.9 0.00 0.00 0.00 36 1005.3
20260505171716 27 188 11.3 27.4 0.00 0.00 0.00 37 1005.5
20260505171215 27 141 9.7 27.4 0.00 0.00 0.00 37 1005.4
20260505170218 26 192 8.0 20.9 0.00 0.00 0.00 39 1005.7
20260505165715 26 186 9.7 24.1 0.00 0.00 0.00 38 1005.7
20260505165215 26 176 9.7 24.1 0.00 0.00 0.00 39 1005.8
20260505164714 26 201 9.7 19.3 0.00 0.00 0.00 40 1005.8
20260505164214 26 165 8.0 19.3 0.00 0.00 0.00 40 1006.0
20260505163715 26 236 8.0 19.3 0.00 0.00 0.00 41 1006.0
20260505163213 25 195 6.4 17.7 0.00 0.00 0.00 41 1006.2
20260505162713 25 152 8.0 16.1 0.00 0.00 0.00 43 1006.3
20260505162212 25 192 9.7 19.3 0.00 0.00 0.00 43 1006.6
20260505161710 25 169 9.7 19.3 0.00 0.00 0.00 43 1006.6
20260505161211 25 155 8.0 17.7 0.00 0.00 0.00 43 1006.9
20260505160709 24 168 8.0 20.9 0.00 0.00 0.00 44 1006.9
20260505160211 24 206 8.0 20.9 0.00 0.00 0.00 45 1007.1
20260505153203 23 214 8.0 17.7 0.00 0.00 0.00 47 1007.3
20260505152202 22 211 6.4 16.1 0.00 0.00 0.00 49 1007.4
20260505151656 22 224 6.4 14.5 0.00 0.00 0.00 50 1007.5
20260505151152 22 152 8.0 14.5 0.00 0.00 0.00 50 1007.5
20260505150653 22 150 8.0 19.3 0.00 0.00 0.00 50 1007.5
20260505150152 21 219 8.0 19.3 0.00 0.00 0.00 53 1007.6
20260505130140 18 135 6.4 17.7 0.00 0.00 0.00 58 1007.6
20260505124638 18 230 9.7 17.7 0.00 0.00 0.00 57 1007.7
20260505124139 18 224 8.0 24.1 0.00 0.00 0.00 58 1007.6
20260505123638 18 266 6.4 24.1 0.00 0.00 0.00 58 1007.8
20260505123133 18 196 8.0 17.7 0.00 0.00 0.00 59 1007.9
20260505122120 18 182 8.0 19.3 0.00 0.00 0.00 60 1007.7
20260505121615 17 223 8.0 19.3 0.00 0.00 0.00 60 1007.6
20260505121109 17 174 6.4 16.1 0.00 0.00 0.00 60 1007.5
20260505115552 16 175 6.4 12.9 0.00 0.00 0.00 63 1007.4
20260505115044 16 160 6.4 11.3 0.00 0.00 0.00 63 1007.6
20260505114539 16 202 6.4 16.1 0.00 0.00 0.00 64 1007.6
20260505113551 16 171 4.8 12.9 0.00 0.00 0.00 65 1007.6
20260505112539 15 260 6.4 12.9 0.00 0.00 0.00 66 1007.7
20260505112040 15 211 6.4 12.9 0.00 0.00 0.00 67 1007.7
20260505111539 15 163 4.8 12.9 0.00 0.00 0.00 68 1007.6
20260505111039 14 208 3.2 12.9 0.00 0.00 0.00 68 1007.7
20260505110539 14 211 4.8 9.7 0.00 0.00 0.00 69 1007.7
20260505102037 12 162 3.2 6.4 0.00 0.00 0.00 71 1007.7
20260505101531 12 181 1.6 4.8 0.00 0.00 0.00 71 1007.7
20260505101038 12 155 1.6 4.8 0.00 0.00 0.00 71 1007.7
20260505100519 12 196 1.6 4.8 0.00 0.00 0.00 71 1007.7
20260505100013 12 173 1.6 6.4 0.00 0.00 0.00 71 1007.6
20260505095507 12 166 3.2 6.4 0.00 0.00 0.00 71 1007.6
20260505095002 12 170 3.2 8.0 0.00 0.00 0.00 71 1007.6
20260505094456 12 165 1.6 8.0 0.00 0.00 0.00 71 1007.6
20260505093950 12 148 1.6 4.8 0.00 0.00 0.00 71 1007.7
20260505093445 12 163 1.6 6.4 0.00 0.00 0.00 70 1007.7
20260505092937 12 154 3.2 9.7 0.00 0.00 0.00 70 1007.7
20260505092430 12 166 3.2 9.7 0.00 0.00 0.00 70 1007.7
20260505091924 12 158 3.2 8.0 0.00 0.00 0.00 70 1007.7
20260505090913 12 169 3.2 6.4 0.00 0.00 0.00 69 1007.7
20260505085901 12 172 3.2 6.4 0.00 0.00 0.00 68 1007.7
20260505085354 12 171 3.2 6.4 0.00 0.00 0.00 68 1007.7
20260505084851 12 201 3.2 4.8 0.00 0.00 0.00 68 1007.8
20260505084345 12 172 1.6 4.8 0.00 0.00 0.00 68 1007.8
20260505083837 12 148 1.6 4.8 0.00 0.00 0.00 68 1007.8
20260505083332 12 165 1.6 4.8 0.00 0.00 0.00 68 1007.8
20260505082826 12 167 1.6 8.0 0.00 0.00 0.00 68 1007.8
20260505082322 12 186 1.6 8.0 0.00 0.00 0.00 68 1007.8
20260505081822 12 203 1.6 6.4 0.00 0.00 0.00 69 1007.8
20260505081321 12 177 1.6 6.4 0.00 0.00 0.00 69 1007.9
20260505080822 12 226 0.0 6.4 0.00 0.00 0.00 69 1008.0
20260505080321 12 169 0.0 4.8 0.00 0.00 0.00 69 1008.0
20260505075823 12 173 0.0 3.2 0.00 0.00 0.00 69 1008.0
20260505075321 12 150 0.0 1.6 0.00 0.00 0.00 68 1008.0
20260505074820 12 136 0.0 3.2 0.00 0.00 0.00 68 1008.1
20260505074321 12 174 0.0 3.2 0.00 0.00 0.00 68 1008.1
20260505073821 12 143 0.0 1.6 0.00 0.00 0.00 68 1008.1
20260505073322 12 162 0.0 3.2 0.00 0.00 0.00 67 1008.1
20260505072819 12 158 1.6 4.8 0.00 0.00 0.00 67 1008.1
20260505072320 12 225 1.6 4.8 0.00 0.00 0.00 67 1008.1
20260505071317 13 138 1.6 4.8 0.00 0.00 0.00 67 1008.2
20260505070815 12 150 0.0 6.4 0.00 0.00 0.00 67 1008.2
20260505070315 12 167 0.0 6.4 0.00 0.00 0.00 67 1008.1
20260505065311 13 219 0.0 3.2 0.00 0.00 0.00 66 1008.2
20260505064807 13 202 0.0 4.8 0.00 0.00 0.00 65 1008.2
20260505063755 13 210 3.2 9.7 0.00 0.00 0.00 64 1008.2
20260505063247 13 209 4.8 9.7 0.00 0.00 0.00 64 1008.2
20260505062743 13 221 4.8 9.7 0.00 0.00 0.00 64 1008.2
20260505062235 13 202 3.2 9.7 0.00 0.00 0.00 64 1008.2
20260505061731 13 182 4.8 9.7 0.00 0.00 0.00 63 1008.2
20260505061223 13 195 4.8 8.0 0.00 0.00 0.00 63 1008.2
20260505060719 13 216 4.8 9.7 0.00 0.00 0.00 63 1008.3
20260505060215 13 200 3.2 12.9 0.00 0.00 0.00 63 1008.2
20260505055716 13 244 3.2 12.9 0.00 0.00 0.00 62 1008.3
20260505055216 13 204 4.8 17.7 0.00 0.00 0.00 62 1008.3
20260505054728 13 207 4.8 17.7 0.00 0.00 0.00 62 1008.3
20260505053718 14 80 4.8 16.1 0.00 0.00 0.00 61 1008.3
20260505053217 14 200 4.8 19.3 0.00 0.00 0.00 61 1008.3
20260505052716 14 221 6.4 19.3 0.00 0.00 0.00 61 1008.2
20260505051719 14 199 8.0 17.7 0.00 0.00 0.00 60 1008.3
20260505051216 14 203 4.8 12.9 0.00 0.00 0.00 60 1008.3
20260505050716 14 226 4.8 9.7 0.00 0.00 0.00 60 1008.3
20260505050217 14 169 6.4 12.9 0.00 0.00 0.00 59 1008.3
20260505041713 14 183 4.8 12.9 0.00 0.00 0.00 57 1008.3
20260505040712 15 227 4.8 11.3 0.00 0.00 0.00 57 1008.2
20260505040211 15 139 4.8 11.3 0.00 0.00 0.00 56 1008.2
20260505035710 15 229 6.4 12.9 0.00 0.00 0.00 56 1008.2
20260505035212 15 158 6.4 12.9 0.00 0.00 0.00 55 1008.2
20260505034712 15 219 4.8 11.3 0.00 0.00 0.00 55 1008.1
20260505034213 15 167 4.8 12.9 0.00 0.00 0.00 55 1008.2
20260505033709 15 172 6.4 14.5 0.00 0.00 0.00 54 1008.2
20260505033208 15 176 6.4 14.5 0.00 0.00 0.00 54 1008.1
20260505032208 15 205 4.8 11.3 0.00 0.00 0.00 54 1008.0
20260505031708 15 136 4.8 14.5 0.00 0.00 0.00 53 1008.1
20260505030211 15 185 6.4 14.5 0.00 0.00 0.00 52 1008.0
20260505025712 16 188 6.4 14.5 0.00 0.00 0.00 52 1008.0
20260505025207 16 190 4.8 12.9 0.00 0.00 0.00 51 1008.0
20260505024707 16 172 4.8 16.1 0.00 0.00 0.00 51 1008.0
20260505024208 16 165 4.8 16.1 0.00 0.00 0.00 51 1007.9
20260505023706 16 239 4.8 12.9 0.00 0.00 0.00 51 1008.1
20260505023205 16 246 4.8 12.9 0.00 0.00 0.00 51 1008.1
20260505022705 16 160 6.4 16.1 0.00 0.00 0.00 50 1008.1
20260505022205 16 155 6.4 16.1 0.00 0.00 0.00 50 1008.1
20260505021709 16 205 6.4 17.7 0.00 0.00 0.00 50 1008.0
20260505021206 16 191 4.8 17.7 0.00 0.00 0.00 49 1008.0
20260505020703 16 153 3.2 8.0 0.00 0.00 0.00 49 1008.1